Flag for Argentina Weather past 2 weeks in Formosa, Formosa, Argentina

Now
88 °F

Clear.


Feels Like: 88 °F
Forecast: N/A
Wind: 6 mph from South

Location: Formosa Aerodrome

Current Time: Oct 25, 2014 at 7:34:30 PM

Latest Report: Oct 25, 2014 at 7:00 PM


Visibility: N/A

Pressure: 29.77 "Hg

Humidity: 43%

Dew point: 63 °F

Location of FormosaLocation

Historic Weather in Formosa — Graph

°F

Formosa temperature yesterday

Maximum temperature yesterday: 95 °F (at 1:00 PM)
Minimum temperature yesterday: 70 °F (at 5:00 AM)
Average temperature yesterday: 83 °F

Past Weeks' High & Low Weather Summary

 TemperatureHumidityPressure
High109 °F (Oct 17, 2:00 PM)100% (Oct 12, 7:00 AM)30.09 "Hg (Oct 12, 7:00 AM)
Low59 °F (Oct 11, 4:00 AM)15% (Oct 17, 2:00 PM)29.50 "Hg (Oct 18, 5:00 PM)
Average81 °F63%29.85 "Hg
* Reported Oct 10 6:00 PM — Oct 25 6:00 PM, Formosa, Weather by CustomWeather, © 2014

Note: Actual official high and low records may vary slightly from our data, if they occured in-between our weather recording intervals... More about our weather records

Advertising

Formosa weather history for previous 24 hours

 ConditionsComfort  
Time TempWeatherWind HumidityBarometerVisibility
6:00 PM
Oct 25
93 °FClear.10 mph34%29.74 "HgN/A
5:00 PM95 °FClear.9 mph32%29.74 "HgN/A
4:00 PM95 °FClear.9 mph32%29.77 "HgN/A
3:00 PM95 °FClear.9 mph32%29.80 "HgN/A
2:00 PM95 °FClear.9 mph34%29.83 "HgN/A
1:00 PM93 °FPassing clouds.9 mph36%29.86 "HgN/A
12:00 PM93 °FPassing clouds.5 mph36%29.86 "HgN/A
11:00 AM90 °FClear.6 mph43%29.89 "HgN/A
10:00 AM86 °FSunny.2 mph49%29.89 "Hg10 mi
9:00 AM82 °FSunny.5 mph58%29.89 "Hg10 mi
8:00 AM77 °FSunny.6 mph69%29.89 "Hg10 mi
7:00 AM68 °FSunny.No wind88%29.86 "Hg10 mi
6:00 AM66 °FSunny.3 mph94%29.83 "Hg10 mi
5:00 AM66 °FClear.3 mph94%29.83 "Hg10 mi
4:00 AM70 °FClear.3 mph83%29.86 "Hg10 mi
3:00 AM73 °FClear.7 mph74%29.83 "Hg10 mi
2:00 AM75 °FClear.6 mph65%29.83 "Hg10 mi
1:00 AM77 °FClear.7 mph61%29.86 "Hg10 mi
12:00 AM77 °FClear.13 mph65%29.86 "Hg10 mi
11:00 PM
Oct 24
79 °FClear.5 mph61%29.89 "Hg10 mi
10:00 PM79 °FClear.6 mph61%29.86 "Hg10 mi
9:00 PM81 °FClear.5 mph58%29.83 "HgN/A
8:00 PM82 °FClear.5 mph51%29.83 "Hg5 mi
7:00 PM88 °FClear.7 mph43%29.80 "HgN/A
Weather by CustomWeather, © 2014

See weather overviewHow to use our weather pages